Alva, OK

8:19 PM CDT on May 25, 2017 (GMT -0500)
Alva Regional

Weather History for KAVK - October, 2012

Change the Weather History Date:

Saturday, October 27, 2012

  Actual Average Record
Temperature  
Mean Temperature 36 °F -  
Max Temperature 48 °F 68 °F 94 °F (1950)
Min Temperature 24 °F 44 °F 22 °F (1957)
Degree Days  
Heating Degree Days 29    
Moisture  
Dew Point 22 °F    
Average Humidity 59    
Maximum Humidity 80    
Minimum Humidity 37    
Precipitation  
Precipitation 0.00 in - - ()
Sea Level Pressure  
Sea Level Pressure 30.32 in    
Wind  
Wind Speed 6 mph (East)    
Max Wind Speed 9 mph    
Max Gust Speed -    
Visibility 10 miles    
Events      
Averages and records for this station are not official NWS values.
T = Trace of Precipitation, MM = Missing Value Source: NWS Daily Summary

Daily Weather History Graph

Daily Weather History Graph

Search for Another Location

Airport or City:

Trip Planner

Search our weather history database for the weather conditions in past years. The results will help you decide how hot, cold, wet, or windy it might be!

Date:

Astronomy

Oct. 27, 2012 Rise Set
Actual Time 7:53 AM CDT 6:42 PM CDT
Civil Twilight 7:27 AM CDT 7:09 PM CDT
Nautical Twilight 6:56 AM CDT 7:39 PM CDT
Astronomical Twilight 6:26 AM CDT 8:09 PM CDT
Moon 5:27 PM CDT (10/27) 5:52 AM CDT (10/27)
Length of Visible Light 11h 41m
Length of Day
10h 48m
Waxing Gibbous, 96% of the Moon is Illuminated
Oct 27
Waxing Gibbous
Oct 29
Full
Nov 6
Last Quarter
Nov 13
New
Nov 20
First Quarter

Hourly Weather History & Observations

Time (CDT) Temp. Windchill Dew Point Humidity Pressure Visibility Wind Dir Wind Speed Gust Speed Precip Events Conditions
12:20 AM 28.4 °F 24.6 °F 19.4 °F 69% 30.41 in 10.0 mi WNW 3.5 mph - N/A   Partly Cloudy
12:40 AM 26.6 °F 20.0 °F 19.4 °F 74% 30.41 in 9.0 mi NW 5.8 mph - N/A   Partly Cloudy
1:00 AM 26.6 °F 19.1 °F 19.4 °F 74% 30.41 in 8.0 mi NW 6.9 mph - N/A   Scattered Clouds
1:20 AM 28.4 °F 21.2 °F 21.2 °F 74% 30.41 in 9.0 mi NNW 6.9 mph - N/A   Mostly Cloudy
1:40 AM 28.4 °F 20.4 °F 21.2 °F 74% 30.41 in 10.0 mi NW 8.1 mph - N/A   Scattered Clouds
2:00 AM 28.4 °F 20.4 °F 21.2 °F 74% 30.40 in 10.0 mi NW 8.1 mph - N/A   Scattered Clouds
2:20 AM 28.4 °F 20.4 °F 21.2 °F 74% 30.40 in 10.0 mi NNW 8.1 mph - N/A   Scattered Clouds
2:40 AM 28.4 °F 22.2 °F 21.2 °F 74% 30.39 in 10.0 mi NNW 5.8 mph - N/A   Partly Cloudy
3:00 AM 28.4 °F 22.2 °F 21.2 °F 74% 30.39 in 10.0 mi NW 5.8 mph - N/A   Partly Cloudy
3:20 AM 28.4 °F 21.2 °F 21.2 °F 74% 30.38 in 10.0 mi North 6.9 mph - N/A   Partly Cloudy
3:40 AM 26.6 °F 20.0 °F 21.2 °F 80% 30.37 in 10.0 mi North 5.8 mph - N/A   Partly Cloudy
4:00 AM 26.6 °F 19.1 °F 21.2 °F 80% 30.36 in 10.0 mi North 6.9 mph - N/A   Partly Cloudy
4:20 AM 26.6 °F 18.2 °F 21.2 °F 80% 30.37 in 10.0 mi North 8.1 mph - N/A   Partly Cloudy
4:40 AM 26.6 °F 19.1 °F 19.4 °F 74% 30.37 in 10.0 mi NNW 6.9 mph - N/A   Partly Cloudy
5:00 AM 26.6 °F 19.1 °F 21.2 °F 80% 30.37 in 10.0 mi NNW 6.9 mph - N/A   Scattered Clouds
5:20 AM 26.6 °F 21.2 °F 19.4 °F 74% 30.37 in 10.0 mi NNW 4.6 mph - N/A   Partly Cloudy
5:40 AM 24.8 °F 17.9 °F 19.4 °F 80% 30.37 in 10.0 mi North 5.8 mph - N/A   Partly Cloudy
6:00 AM 24.8 °F 17.9 °F 19.4 °F 80% 30.38 in 10.0 mi NNW 5.8 mph - N/A   Clear
6:20 AM 24.8 °F 17.9 °F 19.4 °F 80% 30.39 in 10.0 mi North 5.8 mph - N/A   Clear
6:40 AM 24.8 °F 19.1 °F 19.4 °F 80% 30.39 in 10.0 mi North 4.6 mph - N/A   Clear
7:00 AM 24.8 °F 19.1 °F 19.4 °F 80% 30.39 in 10.0 mi North 4.6 mph - N/A   Clear
7:20 AM 24.8 °F 16.1 °F 19.4 °F 80% 30.40 in 10.0 mi North 8.1 mph - N/A   Clear
7:40 AM 24.8 °F 16.1 °F 19.4 °F 80% 30.40 in 9.0 mi North 8.1 mph - N/A   Clear
8:00 AM 24.8 °F 16.1 °F 19.4 °F 80% 30.39 in 7.0 mi North 8.1 mph - N/A   Clear
8:20 AM 26.6 °F 20.0 °F 21.2 °F 80% 30.39 in 8.0 mi North 5.8 mph - N/A   Clear
8:40 AM 30.2 °F 24.3 °F 23.0 °F 75% 30.39 in 9.0 mi NE 5.8 mph - N/A   Clear
9:20 AM 32.0 °F 27.5 °F 23.0 °F 69% 30.40 in 10.0 mi NE 4.6 mph - N/A   Clear
9:40 AM 35.6 °F 31.7 °F 24.8 °F 65% 30.40 in 10.0 mi ENE 4.6 mph - N/A   Clear
10:00 AM 35.6 °F 30.7 °F 24.8 °F 65% 30.39 in 10.0 mi ESE 5.8 mph - N/A   Clear
10:20 AM 37.4 °F 31.4 °F 24.8 °F 60% 30.38 in 10.0 mi ESE 8.1 mph - N/A   Clear
10:40 AM 39.2 °F 33.0 °F 24.8 °F 56% 30.37 in 10.0 mi SE 9.2 mph - N/A   Clear
11:00 AM 41.0 °F 36.4 °F 24.8 °F 53% 30.38 in 10.0 mi ESE 6.9 mph - N/A   Clear
11:20 AM 41.0 °F 38.0 °F 24.8 °F 53% 30.37 in 9.0 mi SE 4.6 mph - N/A   Clear
12:00 PM 42.8 °F 41.1 °F 24.8 °F 49% 30.35 in 10.0 mi SE 3.5 mph - N/A   Clear
12:20 PM 42.8 °F 40.1 °F 24.8 °F 49% 30.33 in 10.0 mi East 4.6 mph - N/A   Clear
12:40 PM 44.6 °F 41.4 °F 24.8 °F 46% 30.31 in 10.0 mi ESE 5.8 mph - N/A   Clear
1:00 PM 44.6 °F 39.7 °F 24.8 °F 46% 30.31 in 10.0 mi SSW 9.2 mph - N/A   Clear
1:20 PM 44.6 °F 43.1 °F 23.0 °F 43% 30.30 in 10.0 mi South 3.5 mph - N/A   Clear
1:40 PM 46.4 °F 44.3 °F 24.8 °F 43% 30.29 in 10.0 mi ESE 4.6 mph - N/A   Clear
2:00 PM 46.4 °F 44.3 °F 23.0 °F 40% 30.27 in 10.0 mi South 4.6 mph - N/A   Clear
2:20 PM 46.4 °F 45.2 °F 23.0 °F 40% 30.26 in 10.0 mi South 3.5 mph - N/A   Clear
2:40 PM 48.2 °F - 23.0 °F 37% 30.25 in 10.0 mi South 5.8 mph - N/A   Clear
3:00 PM 48.2 °F - 23.0 °F 37% 30.24 in 10.0 mi ESE 5.8 mph - N/A   Clear
3:20 PM 48.2 °F - 23.0 °F 37% 30.23 in 10.0 mi SSE 3.5 mph - N/A   Clear
3:40 PM 48.2 °F - 23.0 °F 37% 30.23 in 10.0 mi ESE 6.9 mph - N/A   Clear
4:00 PM 48.2 °F - 23.0 °F 37% 30.23 in 10.0 mi ESE 6.9 mph - N/A   Clear
4:20 PM 48.2 °F - 23.0 °F 37% 30.22 in 10.0 mi SE 8.1 mph - N/A   Clear
4:40 PM 48.2 °F - 23.0 °F 37% 30.21 in 10.0 mi SSE 4.6 mph - N/A   Clear
5:00 PM 48.2 °F - 23.0 °F 37% 30.21 in 10.0 mi SE 6.9 mph - N/A   Clear
5:20 PM 48.2 °F - 23.0 °F 37% 30.21 in 10.0 mi SE 9.2 mph - N/A   Clear
5:40 PM 48.2 °F - 23.0 °F 37% 30.21 in 10.0 mi SE 5.8 mph - N/A   Clear
6:00 PM 46.4 °F 44.3 °F 23.0 °F 40% 30.22 in 10.0 mi SSE 4.6 mph - N/A   Clear
6:20 PM 46.4 °F 45.2 °F 23.0 °F 40% 30.22 in 10.0 mi SE 3.5 mph - N/A   Clear
6:40 PM 44.6 °F 42.2 °F 23.0 °F 43% 30.22 in 10.0 mi ESE 4.6 mph - N/A   Clear
7:00 PM 41.0 °F 36.4 °F 23.0 °F 49% 30.23 in 10.0 mi ESE 6.9 mph - N/A   Clear
7:20 PM 41.0 °F 35.8 °F 23.0 °F 49% 30.24 in 10.0 mi ESE 8.1 mph - N/A   Clear
7:40 PM 41.0 °F 35.2 °F 23.0 °F 49% 30.23 in 10.0 mi ESE 9.2 mph - N/A   Clear
8:00 PM 39.2 °F 33.6 °F 23.0 °F 52% 30.23 in 10.0 mi ESE 8.1 mph - N/A   Clear
8:20 PM 39.2 °F 33.6 °F 23.0 °F 52% 30.24 in 8.0 mi ESE 8.1 mph - N/A   Clear
8:40 PM 39.2 °F 33.6 °F 23.0 °F 52% 30.23 in 10.0 mi SE 8.1 mph - N/A   Clear
9:00 PM 39.2 °F 33.6 °F 23.0 °F 52% 30.23 in 10.0 mi ESE 8.1 mph - N/A   Clear
9:40 PM 37.4 °F 31.4 °F 23.0 °F 56% 30.24 in 10.0 mi SE 8.1 mph - N/A   Clear
10:00 PM 37.4 °F 32.1 °F 23.0 °F 56% 30.25 in 10.0 mi SE 6.9 mph - N/A   Clear
10:20 PM 37.4 °F 32.1 °F 23.0 °F 56% 30.25 in 10.0 mi SE 6.9 mph - N/A   Clear
10:40 PM 32.0 °F 27.5 °F 21.2 °F 64% 30.26 in 10.0 mi SE 4.6 mph - N/A   Partly Cloudy
11:00 PM 33.8 °F 29.6 °F 21.2 °F 60% 30.26 in 10.0 mi SSE 4.6 mph - N/A   Clear
11:20 PM 35.6 °F 31.7 °F 21.2 °F 56% 30.27 in 10.0 mi SE 4.6 mph - N/A   Clear
11:40 PM 35.6 °F 32.8 °F 21.2 °F 56% 30.27 in 10.0 mi SSE 3.5 mph - N/A   Clear